Location: Clayton (historical)
(34.0300°N, 118.0259°W)
Time: 00:59:27
(UTC+00:00)

Envisat - Pass Details

Date: 29 January 2021
Orbit: 764 x 766 km, 98.1° (Epoch: 06 March)

Event Time Altitude Azimuth Distance (km) Brightness Sun altitude
Rises 01:36:36 0° 192° (SSW) 3,216 6.7 -4.2°
Reaches altitude 10° 01:39:09 10° 203° (SSW) 2,295 6.1 -4.7°
Maximum altitude 01:43:32 29° 263° (W) 1,366 5.4 -5.6°
Drops below altitude 10° 01:47:57 10° 324° (NW) 2,307 5.7 -6.5°
Sets 01:50:33 0° 335° (NNW) 3,237 6.4 -7.0°
